Home   Weather   Pasadena   Past weeks
Flag for USA

Past Weather in Pasadena, California, USA — Yesterday and Last 2 Weeks

Now
80 °F

Sunny.


Feels Like: 81 °F
Forecast: 83 / 62 °F
Wind: 10 mph from South

Location: Bob Hope Airport

Current Time: Jul 17, 2019 at 1:56:20 pm

Latest Report: Jul 17, 2019 at 12:53 pm


Visibility: 10 mi

Pressure: 29.91 "Hg

Humidity: 54%

Dew Point: 62 °F

Location of PasadenaLocation

Past Weather in Pasadena — Graph

°F

Pasadena Temperature Yesterday

Maximum temperature yesterday: 88 °F (at 1:53 pm)
Minimum temperature yesterday: 68 °F (at 3:53 am)
Average temperature yesterday: 77 °F

High & Low Weather Summary for the Past Weeks

 TemperatureHumidityPressure
High90 °F (Jul 12, 2:53 pm)94% (Jul 14, 2:53 am)30.04 "Hg (Jul 14, 2:53 am)
Low60 °F (Jul 6, 3:53 am)34% (Jul 15, 2:53 pm)29.73 "Hg (Jul 12, 6:53 pm)
Average71 °F68%29.90 "Hg
* Reported Jul 2 11:53 am — Jul 17 11:53 am, Pasadena. Weather by CustomWeather, © 2019

Note: Actual official high and low records may vary slightly from our data, if they occured in-between our weather recording intervals... More about our weather records

Advertising

Pasadena Weather History for the Previous 24 Hours

Scroll right to see more
 ConditionsComfort  
Time TempWeatherWind HumidityBarometerVisibility
11:53 am
Wed, Jul 17
78 °FSunny.10 mph58%29.91 "Hg10 mi
10:53 am76 °FSunny.7 mph62%29.91 "Hg10 mi
9:53 am74 °FSunny.6 mph64%29.91 "Hg10 mi
8:53 am69 °FSunny.3 mph76%29.90 "Hg8 mi
7:53 am66 °FScattered clouds.3 mph84%29.89 "Hg6 mi
6:53 am65 °FFog.6 mph87%29.87 "Hg6 mi
6:27 am65 °FFog.7 mph91%29.90 "Hg5 mi
5:53 am65 °FLow clouds.5 mph91%29.84 "Hg7 mi
4:53 am66 °FFog.3 mph87%29.82 "Hg6 mi
3:53 am65 °FFog.5 mph91%29.81 "Hg6 mi
3:00 am66 °FFog.5 mph90%29.86 "Hg6 mi
2:18 am66 °FFog.8 mph90%29.86 "Hg6 mi
2:07 am66 °FFog.8 mph90%29.86 "Hg6 mi
1:34 am67 °FPassing clouds.8 mph87%29.86 "Hg8 mi
12:53 am67 °FClear.8 mph87%29.82 "Hg9 mi
11:53 pm
Tue, Jul 16
68 °FClear.9 mph84%29.82 "Hg10 mi
10:53 pm70 °FClear.8 mph79%29.81 "Hg10 mi
9:53 pm71 °FClear.5 mph76%29.82 "Hg10 mi
8:53 pm73 °FClear.7 mph71%29.80 "Hg10 mi
7:53 pm77 °FSunny.6 mph62%29.77 "Hg10 mi
6:53 pm80 °FSunny.12 mph56%29.77 "Hg10 mi
5:53 pm84 °FSunny.10 mph49%29.77 "Hg10 mi
4:53 pm86 °FSunny.8 mph45%29.78 "Hg10 mi
3:53 pm87 °FSunny.12 mph43%29.78 "Hg10 mi
2:53 pm88 °FSunny.12 mph43%29.79 "Hg10 mi
1:53 pm88 °FSunny.10 mph40%29.80 "Hg10 mi
Weather by CustomWeather, © 2019

See weather overview